Regional Weather Roundup
Issued by NWS Memphis, TN

Home | Current Version | Previous Version | Text Only | Print | Product List | Glossary On
Versions: 1 2 3 4 5 6 7 8 9 10 11 12 13 14 15 16 17 18 19 20 21 22 23 24 25 26 27 28 29 30 31 32 33 34 35 36 37 38 39 40 41 42 43 44 45 46 47 48 49 50
000
ASUS44 KMEG 241100
RWRMEG
MEMPHIS CWA HOURLY WEATHER ROUNDUP
NATIONAL WEATHER SERVICE MEMPHIS TN
600 AM CDT THU APR 24 2014

...WEST TENNESSEE...

CITY           SKY/WX    TMP DP  RH WIND       PRES   REMARKS
MEMPHIS INTL   PTCLDY    55  39  54 SE3       29.91S
NWS MEMPHIS      N/A     48 N/A N/A MISG        N/A
JACKSON        PTCLDY    48  37  65 CALM      29.94R
LEXINGTON      CLEAR     39  37  93 CALM      29.94S
DYERSBURG      PTCLDY    48  34  57 SE5       29.94S
UNION CITY     CLEAR     45  37  76 E3        29.92F


...EASTERN ARKANSAS...

CITY           SKY/WX    TMP DP  RH WIND       PRES   REMARKS
JONESBORO      CLEAR     51  41  68 E6        29.89S
WEST MEMPHIS   CLEAR     50  43  77 SE6       29.90S
BATESVILLE     PTCLDY    52  43  71 CALM      29.87S
WALNUT RIDGE   MOCLDY    54  36  50 SE5       29.88S
BLYTHEVILLE    PTCLDY    55  39  54 SE9       29.92S
SEARCY         PTCLDY    49  47  93 CALM      29.89S
STUTTGART      PTCLDY    57  46  67 SE7       29.88S
PINE BLUFF     MOCLDY    57  49  74 SW3       29.88S
MONTICELLO     MOCLDY    59  47  64 S5        29.89R


...NORTH MISSISSIPPI...

CITY           SKY/WX    TMP DP  RH WIND       PRES   REMARKS
TUPELO         CLEAR     47  43  86 CALM      29.94R
TUNICA         CLEAR     50  45  81 SE3       29.92R
GRENADA        CLEAR     46  46 100 CALM      29.93R
GREENWOOD      CLEAR     59  43  55 SE10      29.91R
STARKVILLE     FAIR      45  45 100 CALM      29.94R
GOLDEN TRIANGL CLEAR     50  43  76 SE6       29.96R


...SOUTHEAST MISSOURI...

CITY           SKY/WX    TMP DP  RH WIND       PRES   REMARKS
WEST PLAINS    MOCLDY    54  37  52 SE7       29.86F
POPLAR BLUFF   MOCLDY    50  40  68 CALM      29.89F
CAPE GIRARDEAU MOCLDY    52  37  56 SE9       29.92R


...NORTHWEST ALABAMA...

CITY           SKY/WX    TMP DP  RH WIND       PRES   REMARKS
MUSCLE SHOALS  CLEAR     43  39  86 CALM      29.97R FOG


...MIDDLE TENNESSEE...

CITY           SKY/WX    TMP DP  RH WIND       PRES   REMARKS
NASHVILLE      PTCLDY    43  39  86 CALM      29.98F
CLARKSVILLE    PTCLDY    46  36  68 SE3       29.96F
COLUMBIA       CLEAR     39  39 100 CALM      29.96R


...WESTERN KENTUCKY...

CITY           SKY/WX    TMP DP  RH WIND       PRES   REMARKS
PADUCAH        MOCLDY    52  37  56 SE7       29.93S
FORT CAMPBELL  PTCLDY    48  37  66 E6        29.96F


...CENTRAL ARKANSAS...

CITY           SKY/WX    TMP DP  RH WIND       PRES   REMARKS
LITTLE ROCK    MOCLDY    57  50  77 CALM      29.88R


SKY/WX REPORTED AS FAIR MEANS FEW OR NO CLOUDS BELOW
12 THOUSAND FEET.




USA.gov is the U.S. government's official web portal to all federal, state and local government web resources and services.